This demonstration page uses our WeatherBlox Daily Observations layout. Learn more.

Left ArrowRight Arrow

Hourly Observations for October 24, 2021

Temp ( °F °C ) Dew Point ( °F °C ) Humidity (%) Winds ( mph kmh ) Pressure ( in mb ) Visibility ( mi km ) Precip ( " mm )
12:53 am 00:53 Clear 31 -0.6 23 -5 72 72 WSW 6 9 29.72 1007 10 16 N/A
1:53 am 01:53 Clear 30 -1.1 22 -5.6 72 72 W 5 7 29.72 1007 10 16 N/A
2:53 am 02:53 Clear 27 -2.8 21 -6.1 78 78 W 5 7 29.73 1007 10 16 N/A
3:53 am 03:53 Clear 27 -2.8 21 -6.1 78 78 W 6 9 29.74 1007 10 16 N/A
4:53 am 04:53 Clear 25 -3.9 21 -6.1 85 85 WSW 8 13 29.75 1008 10 16 N/A
5:53 am 05:53 Clear 27 -2.8 21 -6.1 78 78 W 5 7 29.77 1008 10 16 N/A
6:53 am 06:53 Clear 28 -2.2 22 -5.6 78 78 SW 3 6 29.78 1009 10 16 N/A
7:53 am 07:53 Clear 23 -5 20 -6.7 88 88 E 5 7 29.79 1009 10 16 N/A
8:53 am 08:53 Sunny 28 -2.2 22 -5.6 78 78 N N/A 29.80 1009 10 16 N/A
9:53 am 09:53 Sunny 37 2.8 25 -3.9 62 62 E 7 11 29.79 1009 10 16 N/A
10:53 am 10:53 Sunny 44 6.7 28 -2.2 53 53 E 9 15 29.77 1008 10 16 N/A
11:53 am 11:53 Sunny 51 10.6 31 -0.6 46 46 E 7 11 29.77 1008 10 16 N/A
12:53 pm 12:53 Sunny 57 13.9 31 -0.6 37 37 E 7 11 29.73 1007 10 16 N/A
1:53 pm 13:53 Sunny 59 15 31 -0.6 35 35 ENE 13 20 29.69 1005 10 16 N/A
2:53 pm 14:53 Sunny 60 15.6 30 -1.1 32 32 E 13 20 29.68 1005 10 16 N/A
3:53 pm 15:53 Sunny 60 15.6 29 -1.7 31 31 ENE 8 13 29.68 1005 10 16 N/A
4:53 pm 16:53 Sunny 59 15 28 -2.2 31 31 E 9 15 29.65 1004 10 16 N/A
5:53 pm 17:53 Sunny 57 13.9 29 -1.7 34 34 E 15 24 29.62 1003 10 16 N/A
6:53 pm 18:53 Clear 53 11.7 28 -2.2 38 38 E 14 22 29.61 1003 10 16 N/A
7:53 pm 19:53 Clear 52 11.1 34 1.1 50 50 E 16 26 29.64 1004 10 16 N/A
8:53 pm 20:53 Clear 50 10 35 1.7 57 57 ENE 16 26 29.62 1003 10 16 N/A
9:53 pm 21:53 Clear 50 10 35 1.7 57 57 E 10 17 29.56 1001 10 16 N/A
10:15 pm 22:15 Clear 58 14.4 31 -0.6 36 36 SE 25 41 29.49 998 10 16 N/A
10:53 pm 22:53 Clear 58 14.4 31 -0.6 36 36 SE 18 30 29.53 1000 10 16 N/A
11:53 pm 23:53 Mostly Clear 57 13.9 30 -1.1 36 36 SSE 17 28 29.51 999 10 16 N/A

Powered by AerisWeather